This demonstration page uses our WeatherBlox Daily Observations layout. Learn more.

Left ArrowRight Arrow

Hourly Observations for September 23, 2019

Temp ( °F °C ) Dew Point ( °F °C ) Humidity (%) Winds ( mph kmh ) Pressure ( in mb ) Visibility ( mi km ) Precip ( " mm )
12:59 am 00:59 Clear 71 21.7 63 17.2 76 76 SSW 9 15 30.09 1019 10 16 0.00 0.00
1:59 am 01:59 Clear 70 21.1 62 16.7 76 76 SSW 9 15 30.09 1019 10 16 0.00 0.00
2:59 am 02:59 Clear 70 21.1 62 16.7 76 76 SSW 9 15 30.07 1018 10 16 0.00 0.00
3:59 am 03:59 Clear 69 20.6 62 16.7 78 78 SSW 8 13 30.07 1018 10 16 0.00 0.00
4:59 am 04:59 Clear 68 20 62 16.7 81 81 SSW 8 13 30.06 1018 10 16 0.00 0.00
5:59 am 05:59 Clear 68 20 63 17.2 84 84 SW 6 9 30.06 1018 10 16 0.00 0.00
6:59 am 06:59 Mostly Sunny 67 19.4 62 16.7 84 84 SSW 8 13 30.06 1018 10 16 0.00 0.00
7:59 am 07:59 Mostly Sunny 68 20 63 17.2 84 84 SSW 7 11 30.07 1018 10 16 0.00 0.00
8:59 am 08:59 Partly Cloudy 71 21.7 63 17.2 76 76 SSW 8 13 30.06 1018 10 16 0.00 0.00
9:59 am 09:59 Partly Cloudy 76 24.4 65 18.3 69 69 SW 12 19 30.06 1018 10 16 0.00 0.00
10:59 am 10:59 Partly Cloudy 80 26.7 65 18.3 60 60 S 9 15 30.04 1017 10 16 0.00 0.00
11:59 am 11:59 Partly Cloudy 83 28.3 67 19.4 59 59 SSW 7 11 30.01 1016 10 16 0.00 0.00
12:59 pm 12:59 Partly Cloudy 85 29.4 66 18.9 53 53 SW 12 19 29.99 1016 10 16 0.00 0.00
1:59 pm 13:59 Partly Cloudy 87 30.6 67 19.4 51 51 SSW 9 15 29.95 1014 10 16 0.00 0.00
2:59 pm 14:59 Sunny 87 30.6 67 19.4 51 51 SSW 9 15 29.93 1014 10 16 0.00 0.00
3:59 pm 15:59 Mostly Cloudy 87 30.6 67 19.4 51 51 SSW 10 17 29.91 1013 10 16 0.00 0.00
4:59 pm 16:59 Mostly Cloudy 86 30 68 20 55 55 SSW 9 15 29.90 1013 10 16 0.00 0.00
5:59 pm 17:59 Partly Cloudy 84 28.9 67 19.4 57 57 SSW 7 11 29.90 1013 10 16 0.00 0.00
6:59 pm 18:59 Partly Cloudy 81 27.2 66 18.9 61 61 SSW 9 15 29.90 1013 10 16 0.00 0.00
7:59 pm 19:59 Mostly Cloudy 80 26.7 66 18.9 62 62 SSW 9 15 29.90 1013 10 16 0.00 0.00
8:59 pm 20:59 Mostly Cloudy 78 25.6 66 18.9 67 67 SSW 10 17 29.90 1012 10 16 0.00 0.00
9:59 pm 21:59 Mostly Cloudy 77 25 66 18.9 69 69 SSW 9 15 29.90 1013 10 16 0.00 0.00
10:59 pm 22:59 Mostly Cloudy 75 23.9 66 18.9 74 74 SSW 9 15 29.89 1012 10 16 0.00 0.00
11:59 pm 23:59 Mostly Cloudy 74 23.3 66 18.9 76 76 SSW 8 13 29.88 1012 10 16 0.00 0.00

Powered by AerisWeather